EW2077 Weather Reports


Display with metric or nautical units.
time (UTC)temp
F
wind
direction
speed
MPH
gust
MPH
rain 1hr
in
rain 24hr
in
rain mn
in
humidity
%
barometer
mb
20260906224510 79 196 0.0 3.0 0.00 0.10 0.01 42 1029.4
20260906223012 80 211 1.0 4.0 0.00 0.10 0.01 41 1029.6
20260906221507 79 200 0.0 3.0 0.00 0.10 0.01 44 1029.7
20260906220006 79 218 0.0 3.0 0.00 0.10 0.01 42 1030.0
20260906214505 80 221 0.0 6.0 0.00 0.10 0.01 40 1030.1
20260906213003 80 219 0.0 4.0 0.00 0.10 0.01 40 1030.3
20260906211501 80 215 1.0 6.0 0.00 0.10 0.01 40 1030.4
20260906210114 80 217 0.0 6.0 0.00 0.10 0.01 41 1030.5
20260906204602 80 219 1.0 5.0 0.00 0.10 0.01 41 1030.5
20260906203057 79 167 1.0 5.0 0.00 0.10 0.01 41 1030.6
20260906201604 80 213 0.0 5.0 0.00 0.10 0.01 40 1030.6
20260906200059 79 209 1.0 5.0 0.00 0.10 0.01 42 1030.7
20260906194552 80 219 0.0 4.0 0.00 0.10 0.01 41 1030.7
20260906193050 79 190 1.0 6.0 0.00 0.10 0.01 41 1030.7
20260906191547 80 215 0.0 6.0 0.00 0.10 0.01 40 1030.9
20260906190116 79 201 2.0 6.0 0.00 0.10 0.01 39 1031.1
20260906184544 79 209 2.0 7.0 0.00 0.10 0.01 39 1031.3
20260906183048 79 209 0.0 5.0 0.00 0.10 0.01 38 1031.4
20260906181541 80 200 0.0 6.0 0.00 0.10 0.01 38 1031.7
20260906180036 79 209 1.0 5.0 0.00 0.10 0.01 38 1031.9
20260906174534 79 214 1.0 4.0 0.00 0.10 0.01 40 1032.3
20260906173032 78 199 0.0 4.0 0.00 0.10 0.01 40 1032.5
20260906171529 78 210 1.0 4.0 0.00 0.10 0.01 41 1032.9
20260906170030 76 206 2.0 5.0 0.00 0.10 0.01 45 1033.1
20260906164523 75 225 1.0 4.0 0.00 0.10 0.01 44 1033.3
20260906163020 74 294 0.0 3.0 0.00 0.10 0.01 44 1033.4
20260906161518 73 320 0.0 1.0 0.00 0.10 0.01 48 1033.4
20260906160014 72 345 0.0 0.0 0.00 0.10 0.01 51 1033.4
20260906154511 69 348 0.0 0.0 0.00 0.10 0.01 54 1033.5
20260906153006 66 348 0.0 0.0 0.00 0.10 0.01 67 1033.6
20260906151501 64 348 0.0 0.0 0.00 0.10 0.01 68 1033.7
20260906150057 62 348 0.0 0.0 0.00 0.10 0.01 77 1033.8
20260906144553 60 348 0.0 0.0 0.00 0.10 0.01 83 1034.0
20260906143053 57 348 0.0 0.0 0.01 0.10 0.01 87 1034.0
20260906141545 55 348 0.0 0.0 0.01 0.10 0.01 89 1034.1
20260906140049 53 348 0.0 0.0 0.01 0.10 0.01 88 1034.0
20260906134545 52 348 0.0 0.0 0.01 0.10 0.01 89 1034.0
20260906133100 51 348 0.0 0.0 0.00 0.09 0.00 89 1034.1
20260906131546 50 348 0.0 0.0 0.00 0.09 0.00 89 1034.0
20260906130049 50 348 0.0 0.0 0.00 0.09 0.00 88 1033.8
20260906124543 49 348 0.0 0.0 0.00 0.09 0.00 89 1033.7
20260906123043 49 348 0.0 0.0 0.00 0.09 0.00 89 1033.6
20260906121536 49 348 0.0 0.0 0.00 0.09 0.00 89 1033.7
20260906120044 49 348 0.0 0.0 0.00 0.09 0.00 89 1033.7
20260906114534 49 348 0.0 0.0 0.00 0.09 0.00 89 1033.7
20260906113039 50 348 0.0 0.0 0.00 0.09 0.00 90 1033.6
20260906111530 50 348 0.0 0.0 0.00 0.09 0.00 90 1033.3
20260906110028 50 348 0.0 0.0 0.00 0.09 0.00 90 1033.3
20260906104533 50 348 0.0 0.0 0.00 0.09 0.00 90 1033.3
20260906103026 50 348 0.0 0.0 0.00 0.09 0.00 90 1033.3
20260906101524 50 348 0.0 0.0 0.00 0.09 0.00 90 1033.2
20260906100031 50 348 0.0 0.0 0.00 0.09 0.00 90 1033.2
20260906094519 51 348 0.0 0.0 0.00 0.09 0.00 90 1033.3
20260906093040 51 348 0.0 0.0 0.00 0.09 0.00 90 1033.3
20260906091516 51 348 0.0 0.0 0.00 0.09 0.00 90 1033.3
20260906090020 51 348 0.0 0.0 0.00 0.09 0.00 90 1032.9
20260906084518 51 348 0.0 0.0 0.00 0.09 0.00 90 1032.8
20260906083023 51 348 0.0 0.0 0.00 0.09 0.00 90 1032.7
20260906081513 52 348 0.0 0.0 0.00 0.09 0.00 90 1032.8
20260906080011 52 348 0.0 0.0 0.00 0.09 0.00 90 1033.0
20260906074526 52 348 0.0 0.0 0.00 0.09 0.00 90 1033.1
20260906073010 53 348 0.0 0.0 0.00 0.09 0.00 89 1033.1
20260906071504 53 348 0.0 0.0 0.00 0.09 0.00 89 1033.1
20260906070001 54 348 0.0 0.0 0.00 0.09 0.00 89 1033.3
20260906064559 54 348 0.0 0.0 0.00 0.09 0.00 89 1033.2
20260906063058 55 348 0.0 0.0 0.00 0.09 0.00 89 1033.1
20260906061602 55 348 0.0 0.0 0.00 0.09 0.00 89 1033.3
20260906060048 55 348 0.0 0.0 0.00 0.09 0.00 88 1033.3
20260906054549 56 348 0.0 0.0 0.00 0.09 0.09 88 1033.4
20260906053104 57 348 0.0 1.0 0.00 0.09 0.09 88 1033.4
20260906051547 57 350 0.0 0.0 0.04 0.09 0.09 88 1033.7
20260906050047 58 350 0.0 0.0 0.09 0.09 0.09 87 1033.6
20260906044546 58 350 0.0 0.0 0.09 0.09 0.09 85 1033.8
20260906043044 60 355 0.0 1.0 0.09 0.09 0.09 80 1033.9
20260906041550 64 5 0.0 13.0 0.05 0.05 0.05 69 1033.6
20260906040039 69 355 1.0 13.0 0.00 0.00 0.00 47 1033.1
20260906034543 68 15 1.0 9.0 0.00 0.00 0.00 47 1032.8
20260906033045 66 209 0.0 0.0 0.00 0.00 0.00 45 1032.8
20260906031540 66 209 0.0 0.0 0.00 0.00 0.00 46 1032.5
20260906030046 67 209 0.0 0.0 0.00 0.00 0.00 44 1032.4
20260906024536 67 209 0.0 0.0 0.00 0.00 0.00 43 1032.2
20260906023035 68 209 0.0 0.0 0.00 0.00 0.00 42 1031.9
20260906021535 69 209 0.0 0.0 0.00 0.00 0.00 40 1031.8
20260906020034 70 209 0.0 0.0 0.00 0.00 0.00 38 1031.7
20260906014544 72 209 0.0 0.0 0.00 0.00 0.00 37 1031.5
20260906013033 73 209 0.0 0.0 0.00 0.00 0.00 35 1031.3
20260906011539 74 209 0.0 0.0 0.00 0.00 0.00 34 1031.3
20260906010056 76 209 0.0 0.0 0.00 0.00 0.00 33 1031.3
20260906004532 77 209 0.0 0.0 0.00 0.00 0.00 31 1031.3
20260906003031 78 209 0.0 0.0 0.00 0.00 0.00 30 1031.2
20260906001548 78 209 0.0 1.0 0.00 0.00 0.00 30 1031.2
20260906000030 79 209 0.0 2.0 0.00 0.00 0.00 30 1031.0
20260905234530 79 209 0.0 3.0 0.00 0.00 0.00 29 1030.9
20260905233128 81 204 0.0 4.0 0.00 0.00 0.00 27 1030.8
20260905231538 80 204 0.0 3.0 0.00 0.00 0.00 29 1030.7
20260905230026 80 204 0.0 0.0 0.00 0.00 0.00 29 1030.7